AKDT,Max TemperatureF,Mean TemperatureF,Min TemperatureF,Max Dew PointF,MeanDew PointF,Min DewpointF,Max Humidity, Mean Humidity, Min Humidity, Max Sea Level PressureIn, Mean Sea Level PressureIn, Min Sea Level PressureIn, Max VisibilityMiles, Mean VisibilityMiles, Min VisibilityMiles, Max Wind SpeedMPH, Mean Wind SpeedMPH, Max Gust SpeedMPH,PrecipitationIn, CloudCover, Events, WindDirDegrees
2011-10-1,48,44,41,43,39,35,97,84,71,29.50,29.46,29.40,10,9,5,20,7,,0.20,7,Rain,54
2011-10-2,46,42,37,42,40,37,100,93,79,29.49,29.47,29.45,10,10,7,9,4,,0.38,7,Rain,71
2011-10-3,48,42,36,42,39,36,100,89,68,29.50,29.44,29.41,10,10,10,9,4,,0.02,4,Rain,64
2011-10-4,48,39,30,42,36,31,100,94,71,29.58,29.54,29.50,10,8,1,5,1,,0.00,1,,93
2011-10-5,46,38,30,41,35,30,100,90,68,29.56,29.45,29.25,10,8,2,18,5,25,0.17,4,Rain,58
2011-10-6,48,42,37,44,42,38,100,94,80,29.54,29.39,29.27,10,9,2,7,1,,0.19,7,Rain,192
2011-10-7,46,43,41,43,43,40,100,99,92,29.78,29.67,29.54,10,9,2,8,3,,0.19,8,Rain,313
2011-10-8,46,40,35,43,39,36,100,95,74,29.78,29.74,29.61,10,10,10,6,2,,0.00,7,,59
2011-10-9,46,38,30,39,34,30,100,88,56,29.60,29.55,29.52,10,10,9,9,1,,0.00,1,,64
2011-10-10,46,36,26,35,30,26,100,83,52,29.59,29.55,29.52,10,10,10,7,2,,0.00,0,,71
2011-10-11,46,36,25,33,28,24,96,76,44,29.72,29.59,29.52,10,10,10,8,2,,0.00,0,,12
2011-10-12,43,34,26,26,23,21,84,63,43,30.01,29.91,29.74,10,10,10,9,4,,0.00,0,,71
2011-10-13,46,39,33,34,31,26,82,70,58,30.02,29.95,29.73,10,10,10,10,3,,0.00,7,,67
2011-10-14,52,48,43,44,41,37,97,79,68,29.70,29.37,29.22,10,10,8,18,11,31,0.17,8,Rain,128
2011-10-15,46,42,39,43,40,39,100,96,76,29.62,29.50,29.34,10,10,2,8,1,,0.05,8,Rain,306
2011-10-16,43,40,37,41,39,37,100,95,86,29.83,29.69,29.62,10,9,4,12,6,,0.11,8,Rain,245
2011-10-17,43,38,33,37,35,31,100,90,80,29.88,29.84,29.77,10,10,10,6,1,,0.00,7,,44
2011-10-18,44,35,27,33,28,23,96,76,47,29.75,29.70,29.68,10,10,10,8,3,,0.00,1,,59
2011-10-19,39,32,25,31,27,24,100,81,60,29.73,29.71,29.69,10,10,10,8,2,,0.00,1,,57
2011-10-20,46,36,27,38,31,22,92,74,60,29.69,29.50,29.33,10,10,8,22,9,30,0.10,5,Rain,54
2011-10-21,44,38,30,41,37,30,100,91,80,29.34,29.28,29.24,10,8,2,20,9,26,0.33,7,Rain,61
2011-10-22,43,36,30,39,34,30,100,97,82,29.59,29.47,29.35,10,9,2,5,1,,0.00,4,,163
2011-10-23,46,40,35,38,36,33,100,84,65,29.70,29.66,29.61,10,10,10,7,2,,0.00,8,,76
2011-10-24,46,44,42,42,40,37,92,85,74,29.60,29.49,29.33,10,10,8,9,6,18,0.36,8,Rain,120
2011-10-25,45,42,39,42,38,36,100,88,76,29.31,28.87,28.66,10,8,3,25,12,34,0.84,8,Rain,41
2011-10-26,41,34,28,39,30,27,100,77,60,29.52,29.40,29.10,10,10,5,24,14,38,0.04,1,Rain-Snow,264
2011-10-27,41,34,28,34,30,26,100,88,79,29.52,29.48,29.41,10,10,9,8,4,,0.00,4,,50
2011-10-28,41,34,28,35,32,29,100,92,76,29.39,29.24,29.09,10,10,10,10,3,,0.00,5,,60
2011-10-29,42,36,32,35,32,29,100,88,65,29.26,29.08,28.97,10,10,10,14,6,,0.00,7,,58
2011-10-30,37,32,24,34,23,14,100,65,44,29.71,29.50,29.28,10,10,7,22,10,31,0.02,4,Rain-Snow,269
2011-10-31,33,29,26,32,28,20,100,94,72,29.69,29.62,29.53,10,7,0,10,4,,0.07,8,Fog-Snow,47